"Pseudo-MPEC" for P10X1YT

Created 2020 Feb 21 5:07:22 UT using Find_Orb

Click here for an explanation of pseudo-MPECs

 
 Astrometry: 
     P10X1YT  C2020 01 26*gV=_AE$[v@3^UO;NhE/5D=EF]dlHg+5CNd,yRL2j[a_/O*??O6OF51
     P10X1YT  C2020 01 26s(ut*bYs+5GIkSDY4h:ON$Y2wx;gpE;y@5)]H#B7$l)XnMk];,2CF51
     P10X1YT  C2020 01 26dkVaCqN:imAstrometry7XPtZ-rfb!D1(inredacted;wuclickZF51
     P10X1YT KC2020 01 27.25351 08 43 58.96 +47 32 18.2    ~1R7M 21.7 RoNEOCP291
     P10X1YT KC2020 01 27.26156 08 43 58.59 +47 31 25.2    ~1R7M 22.3 RoNEOCP291
     P10X1YT KC2020 01 27.26979 08 43 58.16 +47 30 30.4    ~1R7M 21.9 RoNEOCP291
     P10X1YT  C2020 01 27u9Q#)qsLd0_o^heresVTkBqFf((0forPZ+dUyj,yHb\?[c^ES]u/F51
     P10X1YT  C2020 01 278gR/grkp(APh_+g*k@RSWKit/hvLqL8XM*rPgmZ/R?P\dphq':`!F51
     P10X1YT  C2020 01 27IOwfUIlsa$AbrexplanationqO?+^qJ4.4_v,@jFv:usZ*v#^^#YF51

Station data:
(291) LPL/Spacewatch II  (N31.961669 W111.599905)  US/Arizona.  Observers J.
   V. Scotti, R. S. McMillan. 1.8-m f/2.7 reflector + CCD.
(F51) Pan-STARRS 1, Haleakala  (N20.707235 W156.255910)  US/Hawaii.
   Observers N. Primak, A. Schultz, S. Watters, J. Thiel, T. Goggia. Measurer
   PS1 Science Consortium. 1.8-m Ritchey-Chrétien + CCD.

Orbital elements:  P10X1YT
   Perihelion 2019 Dec 6.529702 +/- 0.229 TT = 12:42:46 (JD 2458824.029702)
Epoch 2020 Jan 27.0 TT = JDT 2458875.5   Earth MOID: 0.0698   Ma: 0.0252
M  19.28411307 +/- 1.6              (J2000 ecliptic)          AutoNEOCP
n   0.37466488 +/- 0.0309           Peri.   84.08274 +/- 1.1
a   1.90563939 +/- 0.105            Node   337.93234 +/- 0.57
e   0.5280495 +/- 0.0295            Incl.    6.58045 +/- 0.21
P   2.63/960.84d           H 25.0   G  0.15   U 10.4  
q 0.89936745 +/- 0.00685    Q 2.91191133 +/- 0.207
From 9 observations 2020 Jan. 26-27 (22.0 hr); mean residual 0".18
Residuals in arcseconds: 
200126 F51  .02+  .22+    200127 291  .22-  .01-    200127 F51  .30+  .33-    
200126 F51  .00   .13+    200127 291  .09+  .21+    200127 F51  .01-  .28+    
200126 F51  .01+  .38-    200127 291  .06-  .12-    200127 F51  .06-  .03-    

Ephemerides (geocentric):
Date (UTC) HH   RA              Dec         delta   r     elong  mag " sig PA
---- -- -- --  -------------   -----------  ------ ------ -----  --- ---- ---
2020 02 21 05  08 44 53.873   +23 44 25.14  .33253 1.2978 155.0 24.2  648 178
2020 02 21 06  08 44 54.769   +23 43 16.20  .33291 1.2981 155.0 24.2  649 178
2020 02 21 07  08 44 55.667   +23 42 07.38  .33330 1.2984 154.9 24.2  649 178
2020 02 21 08  08 44 56.568   +23 40 58.69  .33369 1.2988 154.9 24.2  650 178
2020 02 21 09  08 44 57.471   +23 39 50.12  .33408 1.2991 154.9 24.2  651 178
2020 02 21 10  08 44 58.378   +23 38 41.67  .33446 1.2994 154.8 24.2  652 178
2020 02 21 11  08 44 59.286   +23 37 33.35  .33485 1.2997 154.8 24.2  653 178
2020 02 21 12  08 45 00.198   +23 36 25.15  .33524 1.3000 154.8 24.2  654 178
2020 02 21 13  08 45 01.112   +23 35 17.08  .33563 1.3004 154.7 24.2  654 178
2020 02 21 14  08 45 02.028   +23 34 09.12  .33602 1.3007 154.7 24.2  655 178
2020 02 21 15  08 45 02.947   +23 33 01.29  .33641 1.3010 154.7 24.2  656 178
2020 02 21 16  08 45 03.869   +23 31 53.58  .33680 1.3013 154.7 24.2  657 178
2020 02 21 17  08 45 04.794   +23 30 46.00  .33719 1.3017 154.6 24.2  658 178
2020 02 21 18  08 45 05.721   +23 29 38.53  .33758 1.3020 154.6 24.2  658 178
2020 02 21 19  08 45 06.651   +23 28 31.18  .33797 1.3023 154.6 24.2  659 178
2020 02 21 20  08 45 07.583   +23 27 23.96  .33836 1.3026 154.5 24.2  660 178
2020 02 21 21  08 45 08.518   +23 26 16.85  .33875 1.3029 154.5 24.2  661 178
2020 02 21 22  08 45 09.456   +23 25 09.87  .33914 1.3033 154.5 24.2  661 178
2020 02 21 23  08 45 10.396   +23 24 03.00  .33953 1.3036 154.5 24.2  662 178
2020 02 22 00  08 45 11.339   +23 22 56.25  .33992 1.3039 154.4 24.2  663 178
2020 02 22 01  08 45 12.284   +23 21 49.63  .34031 1.3042 154.4 24.2  664 178
2020 02 22 02  08 45 13.233   +23 20 43.12  .34070 1.3045 154.4 24.3  665 178
2020 02 22 03  08 45 14.183   +23 19 36.72  .34109 1.3049 154.3 24.3  665 178
2020 02 22 04  08 45 15.137   +23 18 30.45  .34148 1.3052 154.3 24.3  666 178
2020 02 22 05  08 45 16.093   +23 17 24.30  .34188 1.3055 154.3 24.3  667 178
2020 02 22 06  08 45 17.052   +23 16 18.26  .34227 1.3058 154.2 24.3  668 178
2020 02 22 07  08 45 18.013   +23 15 12.34  .34266 1.3062 154.2 24.3  669 178
2020 02 22 08  08 45 18.977   +23 14 06.53  .34305 1.3065 154.2 24.3  669 178
2020 02 22 09  08 45 19.943   +23 13 00.84  .34345 1.3068 154.2 24.3  670 178
2020 02 22 10  08 45 20.913   +23 11 55.27  .34384 1.3071 154.1 24.3  671 178
2020 02 22 11  08 45 21.885   +23 10 49.81  .34423 1.3074 154.1 24.3  672 178
2020 02 22 12  08 45 22.859   +23 09 44.47  .34463 1.3078 154.1 24.3  672 178
2020 02 22 13  08 45 23.836   +23 08 39.24  .34502 1.3081 154.0 24.3  673 178
2020 02 22 14  08 45 24.816   +23 07 34.13  .34542 1.3084 154.0 24.3  674 178
2020 02 22 15  08 45 25.798   +23 06 29.14  .34581 1.3087 154.0 24.3  675 178
2020 02 22 16  08 45 26.783   +23 05 24.25  .34621 1.3090 153.9 24.3  676 178
2020 02 22 17  08 45 27.771   +23 04 19.48  .34660 1.3094 153.9 24.3  676 178
2020 02 22 18  08 45 28.761   +23 03 14.83  .34700 1.3097 153.9 24.3  677 178
2020 02 22 19  08 45 29.754   +23 02 10.29  .34739 1.3100 153.9 24.3  678 177
2020 02 22 20  08 45 30.749   +23 01 05.86  .34779 1.3103 153.8 24.3  679 177
2020 02 22 21  08 45 31.748   +23 00 01.54  .34818 1.3106 153.8 24.3  679 177
2020 02 22 22  08 45 32.748   +22 58 57.34  .34858 1.3110 153.8 24.3  680 177
2020 02 22 23  08 45 33.752   +22 57 53.24  .34897 1.3113 153.7 24.3  681 177
2020 02 23 00  08 45 34.758   +22 56 49.26  .34937 1.3116 153.7 24.3  682 177
2020 02 23 01  08 45 35.766   +22 55 45.39  .34977 1.3119 153.7 24.3  682 177
2020 02 23 02  08 45 36.778   +22 54 41.64  .35017 1.3123 153.6 24.3  683 177
2020 02 23 03  08 45 37.791   +22 53 37.99  .35056 1.3126 153.6 24.3  684 177
2020 02 23 04  08 45 38.808   +22 52 34.45  .35096 1.3129 153.6 24.3  685 177